| time (UTC) | temp F | wind direction | speed MPH | gust MPH | rain 1hr in | rain 24hr in | rain mn in | humidity % | barometer mb |
| 20260507221541 | 60 | 336 | 3.0 | 10.0 | 0.00 | 0.07 | 0.03 | 32 | 1002.8 |
| 20260507220028 | 61 | 184 | 3.0 | 11.0 | 0.00 | 0.13 | 0.03 | 31 | 1002.7 |
| 20260507214516 | 63 | 52 | 2.0 | 8.0 | 0.00 | 0.13 | 0.03 | 31 | 1002.8 |
| 20260507213056 | 64 | 236 | 3.0 | 14.0 | 0.00 | 0.13 | 0.03 | 30 | 1002.7 |
| 20260507211539 | 64 | 316 | 0.0 | 15.0 | 0.00 | 0.13 | 0.03 | 30 | 1002.6 |
| 20260507210011 | 63 | 237 | 3.0 | 13.0 | 0.00 | 0.16 | 0.03 | 30 | 1002.5 |
| 20260507204552 | 64 | 271 | 1.0 | 11.0 | 0.00 | 0.16 | 0.03 | 30 | 1002.4 |
| 20260507203030 | 63 | 239 | 2.0 | 10.0 | 0.00 | 0.16 | 0.03 | 31 | 1002.6 |
| 20260507201519 | 65 | 265 | 1.0 | 8.0 | 0.00 | 0.16 | 0.03 | 31 | 1002.5 |
| 20260507200103 | 65 | 313 | 2.0 | 9.0 | 0.00 | 0.20 | 0.03 | 31 | 1002.5 |
| 20260507194535 | 65 | 302 | 2.0 | 10.0 | 0.00 | 0.20 | 0.03 | 32 | 1002.5 |
| 20260507193005 | 65 | 302 | 2.0 | 11.0 | 0.00 | 0.20 | 0.03 | 30 | 1002.5 |
| 20260507191548 | 64 | 77 | 2.0 | 11.0 | 0.00 | 0.20 | 0.03 | 32 | 1002.6 |
| 20260507190016 | 64 | 248 | 8.0 | 15.0 | 0.00 | 0.20 | 0.03 | 31 | 1002.8 |
| 20260507184553 | 63 | 345 | 1.0 | 9.0 | 0.00 | 0.20 | 0.03 | 37 | 1002.7 |
| 20260507183039 | 62 | 271 | 4.0 | 14.0 | 0.00 | 0.20 | 0.03 | 38 | 1003.0 |
| 20260507181516 | 62 | 313 | 3.0 | 11.0 | 0.00 | 0.20 | 0.03 | 40 | 1002.9 |
| 20260507180054 | 62 | 327 | 3.0 | 12.0 | 0.00 | 0.20 | 0.03 | 41 | 1003.0 |
| 20260507174527 | 62 | 321 | 3.0 | 11.0 | 0.00 | 0.20 | 0.03 | 41 | 1003.1 |
| 20260507173004 | 60 | 265 | 5.0 | 13.0 | 0.00 | 0.20 | 0.03 | 42 | 1003.3 |
| 20260507171542 | 61 | 360 | 4.0 | 12.0 | 0.00 | 0.20 | 0.03 | 43 | 1003.4 |
| 20260507170019 | 61 | 331 | 1.0 | 11.0 | 0.00 | 0.20 | 0.03 | 46 | 1003.4 |
| 20260507164559 | 61 | 281 | 3.0 | 10.0 | 0.00 | 0.20 | 0.03 | 48 | 1003.6 |
| 20260507163044 | 60 | 309 | 3.0 | 14.0 | 0.00 | 0.20 | 0.03 | 48 | 1003.8 |
| 20260507161519 | 57 | 231 | 0.0 | 6.0 | 0.00 | 0.20 | 0.03 | 58 | 1003.7 |
| 20260507160107 | 56 | 198 | 1.0 | 7.0 | 0.00 | 0.20 | 0.03 | 68 | 1004.0 |
| 20260507154534 | 55 | 199 | 1.0 | 9.0 | 0.00 | 0.20 | 0.03 | 68 | 1004.2 |
| 20260507153011 | 56 | 238 | 1.0 | 5.0 | 0.00 | 0.20 | 0.03 | 66 | 1004.3 |
| 20260507151549 | 59 | 154 | 1.0 | 8.0 | 0.00 | 0.20 | 0.03 | 60 | 1004.4 |
| 20260507150022 | 60 | 234 | 2.0 | 11.0 | 0.00 | 0.20 | 0.03 | 49 | 1004.4 |
| 20260507144549 | 59 | 202 | 0.0 | 8.0 | 0.00 | 0.20 | 0.03 | 53 | 1004.4 |
| 20260507143036 | 59 | 237 | 0.0 | 3.0 | 0.00 | 0.20 | 0.03 | 61 | 1004.5 |
| 20260507141511 | 57 | 319 | 0.0 | 2.0 | 0.00 | 0.20 | 0.03 | 65 | 1004.6 |
| 20260507140101 | 57 | 161 | 0.0 | 3.0 | 0.00 | 0.20 | 0.03 | 66 | 1004.8 |
| 20260507134525 | 55 | 86 | 0.0 | 4.0 | 0.00 | 0.20 | 0.03 | 71 | 1005.0 |
| 20260507133007 | 53 | 288 | 0.0 | 7.0 | 0.00 | 0.20 | 0.03 | 74 | 1005.1 |
| 20260507131546 | 52 | 255 | 1.0 | 5.0 | 0.00 | 0.20 | 0.03 | 76 | 1005.2 |
| 20260507130016 | 51 | 43 | 0.0 | 0.0 | 0.00 | 0.20 | 0.03 | 80 | 1005.2 |
| 20260507124556 | 50 | 11 | 0.0 | 0.0 | 0.00 | 0.20 | 0.03 | 83 | 1005.3 |
| 20260507123031 | 50 | 335 | 0.0 | 6.0 | 0.00 | 0.20 | 0.03 | 83 | 1005.4 |
| 20260507121508 | 49 | 94 | 0.0 | 0.0 | 0.00 | 0.20 | 0.03 | 85 | 1005.4 |
| 20260507120045 | 48 | 319 | 0.0 | 0.0 | 0.00 | 0.20 | 0.03 | 87 | 1005.4 |
| 20260507114518 | 47 | 18 | 0.0 | 0.0 | 0.00 | 0.20 | 0.03 | 89 | 1005.5 |
| 20260507113057 | 47 | 332 | 0.0 | 0.0 | 0.00 | 0.20 | 0.03 | 90 | 1005.2 |
| 20260507111545 | 46 | 308 | 0.0 | 0.0 | 0.00 | 0.20 | 0.03 | 91 | 1005.5 |
| 20260507110021 | 46 | 308 | 0.0 | 0.0 | 0.00 | 0.20 | 0.03 | 91 | 1005.5 |
| 20260507104550 | 46 | 308 | 0.0 | 0.0 | 0.00 | 0.20 | 0.03 | 91 | 1005.4 |
| 20260507103038 | 46 | 308 | 0.0 | 0.0 | 0.00 | 0.20 | 0.03 | 91 | 1006.1 |
| 20260507101537 | 46 | 308 | 0.0 | 0.0 | 0.00 | 0.20 | 0.03 | 91 | 1005.7 |
| 20260507094548 | 47 | 309 | 0.0 | 1.0 | 0.01 | 0.20 | 0.03 | 90 | 1005.6 |
| 20260507093025 | 47 | 277 | 0.0 | 0.0 | 0.01 | 0.20 | 0.03 | 91 | 1005.1 |
| 20260507091603 | 47 | 320 | 0.0 | 1.0 | 0.01 | 0.20 | 0.03 | 91 | 1004.7 |
| 20260507090032 | 47 | 13 | 0.0 | 1.0 | 0.01 | 0.20 | 0.03 | 91 | 1004.9 |
| 20260507084517 | 48 | 15 | 0.0 | 3.0 | 0.00 | 0.19 | 0.02 | 92 | 1004.7 |
| 20260507083006 | 48 | 17 | 0.0 | 0.0 | 0.00 | 0.19 | 0.02 | 92 | 1005.2 |
| 20260507081553 | 48 | 18 | 0.0 | 0.0 | 0.00 | 0.19 | 0.02 | 91 | 1004.6 |
| 20260507080022 | 48 | 17 | 0.0 | 2.0 | 0.00 | 0.19 | 0.02 | 91 | 1004.2 |
| 20260507074559 | 48 | 343 | 0.0 | 1.0 | 0.00 | 0.19 | 0.02 | 91 | 1004.4 |
| 20260507073040 | 48 | 319 | 0.0 | 1.0 | 0.00 | 0.19 | 0.02 | 92 | 1004.4 |
| 20260507071518 | 49 | 292 | 0.0 | 3.0 | 0.00 | 0.19 | 0.02 | 93 | 1004.1 |
| 20260507070137 | 49 | 342 | 0.0 | 2.0 | 0.00 | 0.19 | 0.02 | 93 | 1004.2 |
| 20260507064531 | 49 | 338 | 0.0 | 2.0 | 0.00 | 0.19 | 0.02 | 94 | 1004.0 |
| 20260507063007 | 50 | 42 | 0.0 | 0.0 | 0.00 | 0.19 | 0.02 | 94 | 1003.9 |
| 20260507061542 | 50 | 46 | 0.0 | 2.0 | 0.00 | 0.19 | 0.02 | 94 | 1003.8 |
| 20260507060030 | 51 | 67 | 0.0 | 4.0 | 0.00 | 0.19 | 0.02 | 94 | 1003.6 |
| 20260507054619 | 52 | 53 | 0.0 | 1.0 | 0.00 | 0.19 | 0.02 | 95 | 1003.6 |
| 20260507053034 | 52 | 61 | 0.0 | 8.0 | 0.00 | 0.19 | 0.02 | 95 | 1003.4 |
| 20260507051507 | 52 | 250 | 0.0 | 4.0 | 0.02 | 0.19 | 0.02 | 95 | 1003.4 |
| 20260507050040 | 52 | 242 | 0.0 | 6.0 | 0.02 | 0.19 | 0.02 | 95 | 1003.5 |
| 20260507044539 | 53 | 273 | 0.0 | 0.0 | 0.02 | 0.19 | 0.02 | 95 | 1003.1 |
| 20260507043101 | 53 | 328 | 0.0 | 3.0 | 0.02 | 0.19 | 0.02 | 95 | 1002.9 |
| 20260507041535 | 52 | 34 | 0.0 | 1.0 | 0.01 | 0.17 | 0.00 | 96 | 1002.6 |
| 20260507040011 | 52 | 232 | 0.0 | 0.0 | 0.01 | 0.17 | 0.17 | 95 | 1002.9 |
| 20260507034552 | 51 | 162 | 0.0 | 0.0 | 0.01 | 0.17 | 0.17 | 95 | 1002.9 |
| 20260507033027 | 51 | 169 | 0.0 | 1.0 | 0.01 | 0.17 | 0.17 | 95 | 1002.7 |
| 20260507031504 | 51 | 161 | 0.0 | 0.0 | 0.00 | 0.16 | 0.16 | 95 | 1002.5 |
| 20260507030047 | 51 | 163 | 0.0 | 1.0 | 0.00 | 0.16 | 0.16 | 95 | 1002.4 |
| 20260507024531 | 50 | 164 | 0.0 | 2.0 | 0.00 | 0.16 | 0.16 | 95 | 1002.6 |
| 20260507023017 | 50 | 180 | 0.0 | 4.0 | 0.00 | 0.16 | 0.16 | 95 | 1002.7 |
| 20260507021615 | 50 | 204 | 1.0 | 3.0 | 0.01 | 0.16 | 0.16 | 95 | 1003.0 |
| 20260507020033 | 50 | 120 | 0.0 | 0.0 | 0.01 | 0.16 | 0.16 | 95 | 1003.1 |
| 20260507014506 | 50 | 168 | 0.0 | 0.0 | 0.01 | 0.16 | 0.16 | 95 | 1003.2 |
| 20260507013052 | 50 | 218 | 0.0 | 0.0 | 0.01 | 0.16 | 0.16 | 95 | 1003.4 |
| 20260507011530 | 50 | 169 | 0.0 | 2.0 | 0.00 | 0.15 | 0.15 | 95 | 1003.5 |
| 20260507010009 | 50 | 145 | 0.0 | 7.0 | 0.00 | 0.15 | 0.15 | 95 | 1003.6 |
| 20260507004548 | 50 | 140 | 0.0 | 3.0 | 0.00 | 0.15 | 0.15 | 94 | 1003.6 |
| 20260507003034 | 50 | 181 | 0.0 | 0.0 | 0.00 | 0.15 | 0.15 | 94 | 1003.7 |
| 20260507001516 | 50 | 139 | 1.0 | 10.0 | 0.00 | 0.15 | 0.15 | 94 | 1003.6 |
| 20260507000055 | 50 | 192 | 0.0 | 7.0 | 0.00 | 0.15 | 0.15 | 94 | 1003.6 |
| 20260506234534 | 50 | 292 | 1.0 | 10.0 | 0.00 | 0.15 | 0.15 | 94 | 1003.7 |
| 20260506233013 | 51 | 114 | 1.0 | 7.0 | 0.00 | 0.15 | 0.15 | 94 | 1003.7 |
| 20260506231554 | 51 | 181 | 1.0 | 9.0 | 0.00 | 0.15 | 0.15 | 94 | 1003.8 |
| 20260506230029 | 51 | 210 | 1.0 | 14.0 | 0.02 | 0.15 | 0.15 | 94 | 1003.8 |
| 20260506224503 | 51 | 111 | 3.0 | 12.0 | 0.03 | 0.15 | 0.15 | 93 | 1003.8 |
| 20260506223042 | 51 | 163 | 4.0 | 11.0 | 0.05 | 0.15 | 0.15 | 93 | 1004.1 |